Flag for India Weather past 2 weeks in New Okhla Industrial Development Authority, Uttar Pradesh, India

Now
81 °F

Fog.


Feels Like: 88 °F
Forecast: 82 / 95 °F
Wind: 6 mph from Southeast

Location: New Delhi Palam Airport

Current Time: Jul 29, 2014 at 4:44:46 AM

Latest Report: Jul 29, 2014 at 4:00 AM


Visibility: 1 mi

Pressure: 29.53 "Hg

Humidity: 94%

Dew point: 79 °F

Location of New Okhla Industrial Development AuthorityLocation

Historic Weather in New Okhla Industrial Development Authority — Graph

°F

New Okhla Industrial Development Authority temperature yesterday

Maximum temperature yesterday: 90 °F (at 11:30 AM)
Minimum temperature yesterday: 81 °F (at 11:00 PM)
Average temperature yesterday: 85 °F

Past Weeks' High & Low Weather Summary

 TemperatureHumidityPressure
High99 °F (Jul 15, 1:00 PM)100% (Jul 17, 8:00 PM)29.71 "Hg (Jul 17, 8:00 PM)
Low79 °F (Jul 17, 8:00 PM)47% (Jul 15, 3:00 PM)29.39 "Hg (Jul 15, 4:30 PM)
Average87 °F73%29.52 "Hg
* Reported Jul 14 3:30 AM — Jul 29 3:30 AM, New Okhla Industrial Development Authority, Weather by CustomWeather, © 2014

Note: Actual official high and low records may vary slightly from our data, if they occured in-between our weather recording intervals... More about our weather records

Advertising

New Okhla Industrial Development Authority weather history for previous 24 hours

 ConditionsComfort  
Time TempWeatherWind HumidityBarometerVisibility
3:30 AM
Jul 29
81 °FFog.No wind100%29.53 "Hg1 mi
3:00 AM81 °FFog.No wind100%29.53 "Hg1 mi
2:30 AM81 °FFog.No wind100%29.53 "Hg1 mi
2:00 AM81 °FFog.No wind100%29.53 "Hg1 mi
1:30 AM81 °FFog.5 mph100%29.56 "Hg1 mi
1:00 AM81 °FFog.5 mph100%29.56 "Hg1 mi
12:30 AM81 °FFog.2 mph100%29.59 "Hg1 mi
12:00 AM81 °FFog.2 mph100%29.59 "Hg1 mi
11:30 PM
Jul 28
81 °FFog.2 mph100%29.59 "Hg1 mi
11:00 PM81 °FFog.3 mph100%29.59 "Hg1 mi
10:30 PM82 °FFog.5 mph94%29.56 "Hg1 mi
10:00 PM82 °FFog.No wind94%29.56 "Hg1 mi
9:00 PM82 °FThunderstorms. Mostly cloudy.3 mph94%29.53 "Hg1 mi
8:30 PM82 °FThunderstorms. Mostly cloudy.3 mph94%29.56 "Hg1 mi
7:30 PM82 °FRain. More clouds than sun.6 mph94%29.53 "Hg2 mi
7:00 PM82 °FRain. More clouds than sun.6 mph94%29.53 "Hg2 mi
6:30 PM84 °FRain. More clouds than sun.6 mph84%29.53 "Hg2 mi
6:00 PM84 °FLight rain. More clouds than sun.6 mph79%29.50 "Hg2 mi
5:30 PM84 °FFog.6 mph79%29.50 "Hg2 mi
5:00 PM82 °FLight rain. More clouds than sun.6 mph84%29.50 "Hg2 mi
4:30 PM82 °FFog.8 mph84%29.50 "Hg2 mi
4:00 PM82 °FFog.8 mph84%29.53 "Hg2 mi
3:30 PM84 °FFog.12 mph79%29.53 "Hg2 mi
3:00 PM86 °FFog.8 mph75%29.53 "Hg2 mi
2:30 PM86 °FFog.7 mph75%29.53 "Hg2 mi
2:00 PM84 °FFog.9 mph79%29.56 "Hg2 mi
1:30 PM90 °FBroken clouds.13 mph67%29.56 "Hg2 mi
1:00 PM90 °FBroken clouds.10 mph67%29.56 "Hg2 mi
12:30 PM90 °FBroken clouds.9 mph67%29.56 "Hg2 mi
12:00 PM90 °FBroken clouds.10 mph67%29.56 "Hg2 mi
11:30 AM90 °FScattered clouds.9 mph67%29.59 "Hg2 mi
11:00 AM88 °FScattered clouds.10 mph70%29.59 "Hg2 mi
10:30 AM88 °FScattered clouds.10 mph75%29.59 "Hg2 mi
10:00 AM88 °FScattered clouds.9 mph75%29.59 "Hg2 mi
9:30 AM88 °FScattered clouds.8 mph75%29.59 "Hg2 mi
9:00 AM86 °FFog.8 mph79%29.59 "Hg2 mi
8:00 AM84 °FFog.9 mph84%29.59 "Hg2 mi
7:30 AM82 °FFog.8 mph89%29.59 "Hg2 mi
7:00 AM82 °FFog.8 mph89%29.59 "Hg2 mi
6:00 AM82 °FFog.6 mph89%29.59 "Hg2 mi
5:30 AM84 °FPassing clouds.5 mph79%29.59 "Hg2 mi
4:30 AM84 °FPassing clouds.3 mph79%29.56 "Hg2 mi
4:00 AM86 °FPassing clouds.3 mph75%29.56 "Hg2 mi
Weather by CustomWeather, © 2014

See weather overviewHow to use our weather pages